User: anonymous   Login
Location: Oberkirch
(48.5323°N, 8.0787°E)
Time: 07:57:18
(UTC+00:00)
Language:

SO-50 - Orbit

View from above orbital plane
View from above orbital plane
View from above satellite
View from above satellite

Ground track
Ground track

The orbit is defined by the following mean orbital elements,

1 27607U          26072.46172483 +.00000000 +00000-0 +26508-3 0 00001
2 27607  64.5526  65.1060 0075301 280.0120  79.2494 14.82801116    06
Epoch (UTC): 13 March 2026 11:04:53
Eccentricity: 0.0075301
inclination: 64.5526°
perigee height: 568 km
apogee height: 673 km
right ascension of ascending node: 65.1060°
argument of perigee: 280.0120°
revolutions per day: 14.82801116
mean anomaly at epoch: 79.2494°

The dashed part of the orbit path shows where the satellite is in the earth's shadow,  

DLR